• In Deutschland
  • Länderverzeichnis
  • Für 7 Tage
  • Wassertemperatur
  • Satellitenkarten
  • Wetterkarte
  • Widgets
  • user-avatar
    Anmelden

    Stündliche Wetter La Paz

    Heute, 21 August, Montag

    Zeit Temperatur Niederschläge Wind Luftdruck Luftfeuchtigkeit
    00:00 +3°C° 0 mm 1 m/S 474 mmHg 88%
    01:00 +3°C° 0 mm 1 m/S 474 mmHg 89%
    02:00 +2°C° 0 mm 1 m/S 474 mmHg 88%
    03:00 +2°C° 0 mm 1 m/S 473 mmHg 87%
    04:00 +1°C° 0 mm 1 m/S 473 mmHg 86%
    05:00 +2°C° 0 mm 1 m/S 474 mmHg 80%
    06:00 +3°C° 0 mm 1 m/S 474 mmHg 74%
    07:00 +4°C° 0 mm 1 m/S 475 mmHg 68%
    08:00 +5°C° 0 mm 1 m/S 476 mmHg 59%
    09:00 +6°C° 0 mm 2 m/S 478 mmHg 50%
    10:00 +8°C° 0 mm 2 m/S 479 mmHg 41%
    11:00 +9°C° 0 mm 2 m/S 479 mmHg 41%
    12:00 +10°C° 0 mm 3 m/S 478 mmHg 40%
    13:00 +10°C° 0 mm 3 m/S 478 mmHg 39%
    14:00 +10°C° 0 mm 3 m/S 478 mmHg 42%
    15:00 +10°C° 0 mm 3 m/S 477 mmHg 44%
    16:00 +9°C° 0 mm 3 m/S 477 mmHg 47%
    17:00 +8°C° 0 mm 2 m/S 476 mmHg 55%
    18:00 +7°C° 0 mm 2 m/S 476 mmHg 64%
    19:00 +5°C° 0 mm 2 m/S 475 mmHg 72%
    20:00 +5°C° 0 mm 2 m/S 475 mmHg 75%
    21:00 +5°C° 0 mm 1 m/S 475 mmHg 78%
    22:00 +4°C° 0 mm 1 m/S 475 mmHg 81%
    23:00 +4°C° 0 mm 1 m/S 474 mmHg 81%

    Morgen, 22 August, Dienstag

    Zeit Temperatur Niederschläge Wind Luftdruck Luftfeuchtigkeit
    00:00 +3°C° 0 mm 1 m/S 474 mmHg 82%
    01:00 +3°C° 0 mm 1 m/S 473 mmHg 82%
    02:00 +2°C° 0 mm 1 m/S 473 mmHg 81%
    03:00 +2°C° 0 mm 1 m/S 472 mmHg 79%
    04:00 +2°C° 0 mm 1 m/S 472 mmHg 77%
    05:00 +3°C° 0 mm 1 m/S 473 mmHg 69%
    06:00 +4°C° 0 mm 1 m/S 474 mmHg 61%
    07:00 +5°C° 0 mm 1 m/S 475 mmHg 53%
    08:00 +7°C° 0 mm 1 m/S 476 mmHg 45%
    09:00 +9°C° 0 mm 1 m/S 478 mmHg 37%
    10:00 +10°C° 0 mm 2 m/S 479 mmHg 28%
    11:00 +12°C° 0 mm 2 m/S 478 mmHg 29%
    12:00 +13°C° 0 mm 2 m/S 478 mmHg 29%
    13:00 +12°C° 0 mm 3 m/S 478 mmHg 29%
    14:00 +12°C° 0,1 mm 3 m/S 477 mmHg 34%
    15:00 +11°C° 0,1 mm 3 m/S 477 mmHg 39%
    16:00 +10°C° 0,1 mm 3 m/S 476 mmHg 44%
    17:00 +9°C° 0 mm 3 m/S 475 mmHg 53%
    18:00 +8°C° 0 mm 2 m/S 475 mmHg 63%
    19:00 +6°C° 0 mm 2 m/S 475 mmHg 72%
    20:00 +5°C° 0 mm 2 m/S 474 mmHg 76%
    21:00 +6°C° 0 mm 1 m/S 474 mmHg 79%
    22:00 +5°C° 0 mm 1 m/S 474 mmHg 82%
    23:00 +5°C° 0 mm 1 m/S 473 mmHg 82%

    übermorgen, 23 August, Mittwoch

    Zeit Temperatur Niederschläge Wind Luftdruck Luftfeuchtigkeit
    00:00 +4°C° 0 mm 1 m/S 473 mmHg 82%
    01:00 +4°C° 0 mm 1 m/S 472 mmHg 82%
    02:00 +3°C° 0 mm 1 m/S 472 mmHg 81%
    03:00 +3°C° 0 mm 1 m/S 471 mmHg 80%
    04:00 +3°C° 0 mm 1 m/S 471 mmHg 79%
    05:00 +4°C° 0 mm 1 m/S 472 mmHg 72%
    06:00 +5°C° 0 mm 1 m/S 473 mmHg 66%
    07:00 +5°C° 0 mm 1 m/S 474 mmHg 60%
    08:00 +7°C° 0 mm 1 m/S 475 mmHg 50%
    09:00 +9°C° 0 mm 2 m/S 476 mmHg 41%
    10:00 +12°C° 0 mm 2 m/S 477 mmHg 31%
    11:00 +12°C° 0 mm 2 m/S 477 mmHg 32%
    12:00 +12°C° 0 mm 3 m/S 477 mmHg 33%
    13:00 +13°C° 0 mm 3 m/S 477 mmHg 34%
    14:00 +12°C° 0,3 mm 3 m/S 476 mmHg 39%
    15:00 +11°C° 0,3 mm 4 m/S 475 mmHg 45%
    16:00 +10°C° 0,3 mm 4 m/S 474 mmHg 51%
    17:00 +9°C° 0,1 mm 3 m/S 474 mmHg 60%
    18:00 +8°C° 0,1 mm 3 m/S 474 mmHg 69%
    19:00 +6°C° 0,1 mm 2 m/S 474 mmHg 78%
    20:00 +6°C° 0 mm 2 m/S 474 mmHg 82%
    21:00 +5°C° 0 mm 2 m/S 474 mmHg 86%
    22:00 +5°C° 0 mm 2 m/S 474 mmHg 89%
    23:00 +5°C° 0 mm 2 m/S 473 mmHg 89%

    24 August, Donnerstag

    Zeit Temperatur Niederschläge Wind Luftdruck Luftfeuchtigkeit
    00:00 +5°C° 0 mm 1 m/S 473 mmHg 90%
    01:00 +5°C° 0 mm 1 m/S 472 mmHg 90%
    02:00 +5°C° 0 mm 1 m/S 472 mmHg 89%
    03:00 +4°C° 0 mm 1 m/S 472 mmHg 89%
    04:00 +4°C° 0 mm 1 m/S 472 mmHg 88%
    05:00 +4°C° 0 mm 1 m/S 473 mmHg 85%
    06:00 +5°C° 0 mm 1 m/S 473 mmHg 81%
    07:00 +5°C° 0 mm 1 m/S 474 mmHg 78%
    08:00 +6°C° 0 mm 2 m/S 475 mmHg 69%
    09:00 +7°C° 0 mm 2 m/S 476 mmHg 60%
    10:00 +9°C° 0 mm 3 m/S 477 mmHg 52%
    11:00 +9°C° 0,1 mm 3 m/S 476 mmHg 52%
    12:00 +10°C° 0,1 mm 4 m/S 476 mmHg 53%
    13:00 +10°C° 0,1 mm 4 m/S 475 mmHg 54%
    14:00 +10°C° 0,2 mm 4 m/S 475 mmHg 56%
    15:00 +8°C° 0,2 mm 4 m/S 475 mmHg 58%
    16:00 +8°C° 0,2 mm 4 m/S 474 mmHg 60%
    17:00 +7°C° 0,1 mm 4 m/S 474 mmHg 68%
    18:00 +5°C° 0,1 mm 4 m/S 474 mmHg 76%
    19:00 +4°C° 0,1 mm 3 m/S 473 mmHg 84%
    20:00 +4°C° 0 mm 3 m/S 473 mmHg 84%
    21:00 +5°C° 0 mm 2 m/S 473 mmHg 85%
    22:00 +5°C° 0 mm 1 m/S 473 mmHg 85%
    23:00 +5°C° 0 mm 1 m/S 473 mmHg 86%

    25 August, Freitag

    Zeit Temperatur Niederschläge Wind Luftdruck Luftfeuchtigkeit
    00:00 +5°C° 0 mm 1 m/S 473 mmHg 86%
    01:00 +4°C° 0 mm 1 m/S 473 mmHg 86%
    02:00 +4°C° 0 mm 1 m/S 472 mmHg 87%
    03:00 +4°C° 0 mm 1 m/S 472 mmHg 87%
    04:00 +4°C° 0 mm 1 m/S 472 mmHg 88%
    05:00 +4°C° 0 mm 1 m/S 473 mmHg 85%
    06:00 +5°C° 0 mm 1 m/S 473 mmHg 82%
    07:00 +6°C° 0 mm 1 m/S 474 mmHg 78%
    08:00 +7°C° 0 mm 1 m/S 475 mmHg 70%
    09:00 +8°C° 0 mm 2 m/S 476 mmHg 61%
    10:00 +9°C° 0 mm 2 m/S 477 mmHg 52%
    11:00 +10°C° 0,1 mm 3 m/S 476 mmHg 51%
    12:00 +10°C° 0,1 mm 3 m/S 476 mmHg 49%
    13:00 +11°C° 0,1 mm 3 m/S 476 mmHg 48%
    14:00 +11°C° 0,2 mm 3 m/S 476 mmHg 50%
    15:00 +11°C° 0,2 mm 3 m/S 475 mmHg 52%
    16:00 +10°C° 0,2 mm 3 m/S 475 mmHg 54%
    17:00 +9°C° 0 mm 3 m/S 475 mmHg 63%
    18:00 +8°C° 0 mm 3 m/S 474 mmHg 71%
    19:00 +7°C° 0 mm 2 m/S 474 mmHg 80%
    20:00 +6°C° 0 mm 2 m/S 474 mmHg 82%
    21:00 +7°C° 0 mm 1 m/S 474 mmHg 84%
    22:00 +6°C° 0 mm 1 m/S 474 mmHg 86%
    23:00 +6°C° 0 mm 1 m/S 473 mmHg 87%

    26 August, Samstag

    Zeit Temperatur Niederschläge Wind Luftdruck Luftfeuchtigkeit
    00:00 +5°C° 0 mm 1 m/S 473 mmHg 88%
    01:00 +5°C° 0 mm 1 m/S 473 mmHg 90%
    02:00 +3°C° 0 mm 0 m/S 472 mmHg 90%
    03:00 +3°C° 0 mm 0 m/S 472 mmHg 90%
    04:00 +3°C° 0 mm 0 m/S 472 mmHg 90%
    05:00 +4°C° 0 mm 0 m/S 473 mmHg 85%
    06:00 +4°C° 0 mm 0 m/S 474 mmHg 80%
    07:00 +5°C° 0 mm 0 m/S 475 mmHg 75%
    08:00 +8°C° 0 mm 1 m/S 476 mmHg 65%
    09:00 +9°C° 0 mm 1 m/S 477 mmHg 55%
    10:00 +11°C° 0 mm 1 m/S 478 mmHg 45%
    11:00 +12°C° 0,2 mm 2 m/S 477 mmHg 44%
    12:00 +12°C° 0,2 mm 2 m/S 477 mmHg 43%
    13:00 +13°C° 0,2 mm 2 m/S 477 mmHg 42%
    14:00 +12°C° 0,4 mm 3 m/S 476 mmHg 44%
    15:00 +11°C° 0,4 mm 3 m/S 476 mmHg 47%
    16:00 +11°C° 0,4 mm 3 m/S 475 mmHg 49%
    17:00 +10°C° 0 mm 3 m/S 475 mmHg 59%
    18:00 +8°C° 0 mm 3 m/S 475 mmHg 68%
    19:00 +7°C° 0 mm 3 m/S 474 mmHg 77%
    20:00 +7°C° 0 mm 3 m/S 474 mmHg 79%
    21:00 +6°C° 0 mm 2 m/S 474 mmHg 82%
    22:00 +5°C° 0 mm 2 m/S 474 mmHg 84%
    23:00 +6°C° 0 mm 1 m/S 474 mmHg 85%
    Mehr zeigen